Time,TemperatureF,DewpointF,PressureIn,WindDirection,WindDirectionDegrees,WindSpeedMPH,WindSpeedGustMPH,Humidity,HourlyPrecipIn,Conditions,Clouds,dailyrainin,SoftwareType,DateUTC
2013-10-24 09:05:00,44.6,33.6,29.79,WNW,302,3.0,3.0,65,0.00,,,0.00,Wunderground v.1.15,2013-10-24 13:05:00,
2013-10-24 09:15:00,45.0,33.9,29.80,NW,306,3.0,8.0,65,0.00,,,0.00,Wunderground v.1.15,2013-10-24 13:15:00,
2013-10-24 09:20:00,45.2,33.7,29.80,WNW,298,3.0,3.0,64,0.00,,,0.00,Wunderground v.1.15,2013-10-24 13:20:00,
2013-10-24 09:25:00,45.4,33.5,29.80,NW,314,3.0,3.0,63,0.00,,,0.00,Wunderground v.1.15,2013-10-24 13:25:00,
2013-10-24 09:30:00,45.7,33.4,29.80,WNW,302,3.0,3.0,62,0.00,,,0.00,Wunderground v.1.15,2013-10-24 13:30:00,
2013-10-24 09:35:00,45.9,33.6,29.80,WNW,302,3.0,8.0,62,0.00,,,0.00,Wunderground v.1.15,2013-10-24 13:35:00,
2013-10-24 09:40:00,45.9,33.6,29.80,WNW,289,3.0,3.0,62,0.00,,,0.00,Wunderground v.1.15,2013-10-24 13:40:00,
2013-10-24 10:05:00,46.5,33.4,29.80,WNW,298,3.0,3.0,60,0.00,,,0.00,Wunderground v.1.15,2013-10-24 14:05:00,
2013-10-24 10:15:00,46.9,32.9,29.80,WSW,258,5.0,5.0,58,0.00,,,0.00,Wunderground v.1.15,2013-10-24 14:15:00,
2013-10-24 10:25:00,47.5,33.4,29.80,West,259,4.0,4.0,58,0.00,,,0.00,Wunderground v.1.15,2013-10-24 14:25:00,
2013-10-24 10:30:00,48.1,33.1,29.80,SSW,192,4.0,4.0,56,0.00,,,0.00,Wunderground v.1.15,2013-10-24 14:30:00,
2013-10-24 10:40:00,48.7,32.8,29.80,NE,51,4.0,11.0,54,0.00,,,0.00,Wunderground v.1.15,2013-10-24 14:40:00,
2013-10-24 10:50:00,49.3,31.9,29.80,West,273,4.0,4.0,51,0.00,,,0.00,Wunderground v.1.15,2013-10-24 14:50:00,
2013-10-24 11:00:00,50.3,31.8,29.80,WNW,300,3.0,8.0,49,0.00,,,0.00,Wunderground v.1.15,2013-10-24 15:00:00,
2013-10-24 11:05:00,50.4,31.4,29.79,West,259,4.0,8.0,48,0.00,,,0.00,Wunderground v.1.15,2013-10-24 15:05:00,
2013-10-24 11:15:00,50.7,31.7,29.80,NW,306,4.0,5.0,48,0.00,,,0.00,Wunderground v.1.15,2013-10-24 15:15:00,
2013-10-24 11:25:00,51.4,31.3,29.80,WNW,299,4.0,7.0,46,0.00,,,0.00,Wunderground v.1.15,2013-10-24 15:25:00,
2013-10-24 11:30:00,51.6,30.9,29.80,NW,305,4.0,6.0,45,0.00,,,0.00,Wunderground v.1.15,2013-10-24 15:30:00,
2013-10-24 11:35:00,51.7,31.0,29.80,WNW,283,4.0,6.0,45,0.00,,,0.00,Wunderground v.1.15,2013-10-24 15:35:00,
2013-10-24 11:45:00,52.0,30.2,29.79,West,279,5.0,6.0,43,0.00,,,0.00,Wunderground v.1.15,2013-10-24 15:45:00,
2013-10-24 11:55:00,52.2,30.4,29.79,NW,304,4.0,5.0,43,0.00,,,0.00,Wunderground v.1.15,2013-10-24 15:55:00,
2013-10-24 12:05:00,52.3,29.9,29.78,WNW,298,5.0,8.0,42,0.00,,,0.00,Wunderground v.1.15,2013-10-24 16:05:00,
2013-10-24 12:15:00,52.2,29.8,29.78,West,276,5.0,6.0,42,0.00,,,0.00,Wunderground v.1.15,2013-10-24 16:15:00,
2013-10-24 12:25:00,52.1,30.3,29.78,NW,321,6.0,6.0,43,0.00,,,0.00,Wunderground v.1.15,2013-10-24 16:25:00,
2013-10-24 12:35:00,52.6,30.1,29.77,SSE,153,4.0,5.0,42,0.00,,,0.00,Wunderground v.1.15,2013-10-24 16:35:00,
2013-10-24 12:45:00,52.6,30.7,29.76,NW,304,5.0,6.0,43,0.00,,,0.00,Wunderground v.1.15,2013-10-24 16:45:00,
2013-10-24 12:55:00,52.1,30.3,29.76,West,267,4.0,9.0,43,0.00,,,0.00,Wunderground v.1.15,2013-10-24 16:55:00,
2013-10-24 13:00:00,51.9,29.5,29.76,WSW,250,5.0,5.0,42,0.00,,,0.00,Wunderground v.1.15,2013-10-24 17:00:00,
2013-10-24 13:05:00,51.7,29.9,29.76,WNW,286,4.0,5.0,43,0.00,,,0.00,Wunderground v.1.15,2013-10-24 17:05:00,
2013-10-24 13:15:00,52.5,30.0,29.75,NW,304,3.0,3.0,42,0.00,,,0.00,Wunderground v.1.15,2013-10-24 17:15:00,
2013-10-24 13:25:00,53.9,29.5,29.75,WNW,282,4.0,8.0,39,0.00,,,0.00,Wunderground v.1.15,2013-10-24 17:25:00,
2013-10-24 13:35:00,54.3,28.6,29.75,West,276,4.0,4.0,37,0.00,,,0.00,Wunderground v.1.15,2013-10-24 17:35:00,
2013-10-24 13:45:00,55.3,28.8,29.75,WNW,284,3.0,6.0,36,0.00,,,0.00,Wunderground v.1.15,2013-10-24 17:45:00,
2013-10-24 13:55:00,54.6,28.2,29.75,WNW,298,7.0,7.0,36,0.00,,,0.00,Wunderground v.1.15,2013-10-24 17:55:00,
2013-10-24 14:05:00,54.6,27.5,29.75,West,280,3.0,5.0,35,0.00,,,0.00,Wunderground v.1.15,2013-10-24 18:05:00,
2013-10-24 14:10:00,54.5,27.4,29.75,SSW,202,4.0,4.0,35,0.00,,,0.00,Wunderground v.1.15,2013-10-24 18:10:00,
2013-10-24 14:20:00,55.5,26.8,29.75,West,271,4.0,8.0,33,0.00,,,0.00,Wunderground v.1.15,2013-10-24 18:20:00,
2013-10-24 14:30:00,55.6,26.9,29.75,WNW,301,5.0,5.0,33,0.00,,,0.00,Wunderground v.1.15,2013-10-24 18:30:00,
2013-10-24 14:40:00,55.3,27.4,29.75,NNW,330,6.0,6.0,34,0.00,,,0.00,Wunderground v.1.15,2013-10-24 18:40:00,
2013-10-24 14:50:00,54.4,27.3,29.76,WNW,295,4.0,5.0,35,0.00,,,0.00,Wunderground v.1.15,2013-10-24 18:50:00,
2013-10-24 15:00:00,53.3,27.0,29.76,WSW,238,4.0,4.0,36,0.00,,,0.00,Wunderground v.1.15,2013-10-24 19:00:00,
2013-10-24 15:10:00,54.4,27.3,29.76,WNW,300,2.0,12.0,35,0.00,,,0.00,Wunderground v.1.15,2013-10-24 19:10:00,
2013-10-24 15:20:00,54.5,26.7,29.76,WNW,287,5.0,6.0,34,0.00,,,0.00,Wunderground v.1.15,2013-10-24 19:20:00,
2013-10-24 15:25:00,54.5,26.0,29.76,West,261,5.0,6.0,33,0.00,,,0.00,Wunderground v.1.15,2013-10-24 19:25:00,
2013-10-24 15:35:00,54.2,26.4,29.76,NW,309,5.0,8.0,34,0.00,,,0.00,Wunderground v.1.15,2013-10-24 19:35:00,
2013-10-24 15:45:00,55.0,27.1,29.76,West,270,2.0,4.0,34,0.00,,,0.00,Wunderground v.1.15,2013-10-24 19:45:00,
2013-10-24 15:55:00,55.1,25.7,29.77,WNW,285,5.0,13.0,32,0.00,,,0.00,Wunderground v.1.15,2013-10-24 19:55:00,
2013-10-24 16:05:00,54.4,25.1,29.77,WNW,294,4.0,9.0,32,0.00,,,0.00,Wunderground v.1.15,2013-10-24 20:05:00,
2013-10-24 16:15:00,53.0,26.0,29.77,West,271,5.0,8.0,35,0.00,,,0.00,Wunderground v.1.15,2013-10-24 20:15:00,
2013-10-24 16:25:00,53.4,25.7,29.77,WNW,298,3.0,4.0,34,0.00,,,0.00,Wunderground v.1.15,2013-10-24 20:25:00,
2013-10-24 16:30:00,53.1,24.7,29.77,WNW,295,4.0,8.0,33,0.00,,,0.00,Wunderground v.1.15,2013-10-24 20:30:00,
2013-10-24 16:40:00,52.6,25.0,29.77,WNW,288,4.0,4.0,34,0.00,,,0.00,Wunderground v.1.15,2013-10-24 20:40:00,
2013-10-24 16:50:00,52.3,24.7,29.77,West,281,4.0,4.0,34,0.00,,,0.00,Wunderground v.1.15,2013-10-24 20:50:00,